,,,PA_Meas_PMT16A,,PR_Meas_QMR101_102,,RH_Meas_QMH101,,SR_Meas_QMS101,,TA_Meas_QMH101,,GenWind,,GenWind,
date,time,status,PA,status,PR,status,RH,status,SR,status,TA,status,DirAvg,status,SpdAvg,
2011-05-04, 00:00:05,VALID,999.569,VALID,0,VALID,92.7151,VALID,0,VALID,24.2281,VALID,167,VALID,0,
2011-05-04, 00:01:05,VALID,999.563,VALID,0,VALID,92.7457,VALID,0,VALID,24.2281,VALID,167,VALID,0,
2011-05-04, 00:02:05,VALID,999.547,VALID,0,VALID,92.7685,VALID,0,VALID,24.2495,VALID,167,VALID,0,
2011-05-04, 00:03:05,VALID,999.525,VALID,0,VALID,92.8143,VALID,0,VALID,24.2495,VALID,167,VALID,0,
2011-05-04, 00:04:05,VALID,999.536,VALID,0,VALID,92.822,VALID,0,VALID,24.2281,VALID,167,VALID,0,
2011-05-04, 00:05:05,VALID,999.519,VALID,0,VALID,92.8677,VALID,0,VALID,24.2086,VALID,167,VALID,0,
2011-05-04, 00:06:05,VALID,999.558,VALID,0,VALID,92.8754,VALID,0,VALID,24.2281,VALID,167,VALID,0,
2011-05-04, 00:07:05,VALID,999.55,VALID,0,VALID,92.883,VALID,0,VALID,24.2281,VALID,167,VALID,0,
2011-05-04, 00:08:05,VALID,999.536,VALID,0,VALID,92.9211,VALID,0,VALID,24.2281,VALID,167,VALID,0,
2011-05-04, 00:09:05,VALID,999.525,VALID,0,VALID,92.9288,VALID,0,VALID,24.2281,VALID,167,VALID,0,
2011-05-04, 00:10:05,VALID,999.555,VALID,0,VALID,92.944,VALID,0,VALID,24.2281,VALID,167,VALID,0,
2011-05-04, 00:11:05,VALID,999.534,VALID,0,VALID,92.9517,VALID,0,VALID,24.2086,VALID,320,VALID,0,
2011-05-04, 00:12:05,VALID,999.519,VALID,0,VALID,92.9745,VALID,0,VALID,24.1891,VALID,320,VALID,0,
2011-05-04, 00:13:05,VALID,999.545,VALID,0,VALID,92.9974,VALID,0,VALID,24.1891,VALID,320,VALID,0,
2011-05-04, 00:14:05,VALID,999.538,VALID,0,VALID,93.0203,VALID,0,VALID,24.1696,VALID,320,VALID,0,
2011-05-04, 00:15:05,VALID,999.507,VALID,0,VALID,93.0432,VALID,0,VALID,24.1696,VALID,320,VALID,0,
2011-05-04, 00:16:05,VALID,999.523,VALID,0,VALID,93.0432,VALID,0,VALID,24.15,VALID,320,VALID,0,
2011-05-04, 00:17:05,VALID,999.519,VALID,0,VALID,93.0661,VALID,0,VALID,24.1696,VALID,320,VALID,0,
2011-05-04, 00:18:05,VALID,999.526,VALID,0,VALID,93.0814,VALID,0,VALID,24.15,VALID,320,VALID,0,
2011-05-04, 00:19:05,VALID,999.505,VALID,0,VALID,93.1043,VALID,0,VALID,24.1305,VALID,320,VALID,0,
2011-05-04, 00:20:05,VALID,999.501,VALID,0,VALID,93.1043,VALID,0,VALID,24.15,VALID,320,VALID,0,
2011-05-04, 00:21:05,VALID,999.517,VALID,0,VALID,93.1271,VALID,0,VALID,24.1305,VALID,320,VALID,0,
2011-05-04, 00:22:05,VALID,999.508,VALID,0,VALID,93.1424,VALID,0,VALID,24.1305,VALID,320,VALID,0,
2011-05-04, 00:23:05,VALID,999.49,VALID,0,VALID,93.15,VALID,0,VALID,24.111,VALID,320,VALID,0,
2011-05-04, 00:24:05,VALID,999.487,VALID,0,VALID,93.1805,VALID,0,VALID,24.111,VALID,320,VALID,0,
2011-05-04, 00:25:05,VALID,999.478,VALID,0,VALID,93.1729,VALID,0,VALID,24.0701,VALID,320,VALID,0,
2011-05-04, 00:26:05,VALID,999.485,VALID,0,VALID,93.2034,VALID,0,VALID,24.0915,VALID,320,VALID,0,
2011-05-04, 00:27:05,VALID,999.442,VALID,0,VALID,93.2034,VALID,0,VALID,24.0915,VALID,320,VALID,0,
2011-05-04, 00:28:05,VALID,999.482,VALID,0,VALID,93.1958,VALID,0,VALID,24.0915,VALID,320,VALID,0,
2011-05-04, 00:29:05,VALID,999.441,VALID,0,VALID,93.234,VALID,0,VALID,24.072,VALID,320,VALID,0,
2011-05-04, 00:30:05,VALID,999.423,VALID,0,VALID,93.234,VALID,0,VALID,24.072,VALID,320,VALID,0,
2011-05-04, 00:31:05,VALID,999.413,VALID,0,VALID,93.2416,VALID,0,VALID,24.0915,VALID,320,VALID,0,
2011-05-04, 00:32:05,VALID,999.448,VALID,0,VALID,93.2492,VALID,0,VALID,24.0915,VALID,320,VALID,0,
2011-05-04, 00:33:05,VALID,999.411,VALID,0,VALID,93.2645,VALID,0,VALID,24.0915,VALID,320,VALID,0,
2011-05-04, 00:34:05,VALID,999.413,VALID,0,VALID,93.2797,VALID,0,VALID,24.0915,VALID,320,VALID,0,
2011-05-04, 00:35:05,VALID,999.368,VALID,0,VALID,93.2874,VALID,0,VALID,24.0933,VALID,343,VALID,0,
2011-05-04, 00:36:05,VALID,999.397,VALID,0,VALID,93.2874,VALID,0,VALID,24.0525,VALID,26,VALID,0,
2011-05-04, 00:37:05,VALID,999.381,VALID,0,VALID,93.2797,VALID,0,VALID,24.0525,VALID,28,VALID,0,
2011-05-04, 00:38:05,VALID,999.337,VALID,0,VALID,93.3026,VALID,0,VALID,24.0525,VALID,39,VALID,0,
2011-05-04, 00:39:05,VALID,999.351,VALID,0,VALID,93.3179,VALID,0,VALID,24.0525,VALID,39,VALID,0.880469,
2011-05-04, 00:40:05,VALID,999.342,VALID,0,VALID,93.3484,VALID,0,VALID,24.0329,VALID,39,VALID,0.89375,
2011-05-04, 00:41:05,VALID,999.335,VALID,0,VALID,93.3255,VALID,0,VALID,24.0116,VALID,39,VALID,0.784375,
2011-05-04, 00:42:05,VALID,999.327,VALID,0,VALID,93.3484,VALID,0,VALID,24.0329,VALID,39,VALID,0.857422,
2011-05-04, 00:43:05,VALID,999.321,VALID,0,VALID,93.3637,VALID,0,VALID,24.0329,VALID,39,VALID,0.842969,
2011-05-04, 00:44:05,VALID,999.323,VALID,0,VALID,93.3713,VALID,0,VALID,24.0134,VALID,39,VALID,0.779297,
2011-05-04, 00:45:05,VALID,999.307,VALID,0,VALID,93.3713,VALID,0,VALID,24.0134,VALID,39,VALID,0.787109,
2011-05-04, 00:46:05,VALID,999.276,VALID,0,VALID,93.3637,VALID,0,VALID,24.0134,VALID,39,VALID,0.537891,
2011-05-04, 00:47:05,VALID,999.281,VALID,0,VALID,93.3789,VALID,0,VALID,24.0329,VALID,39,VALID,0.674609,
2011-05-04, 00:48:05,VALID,999.276,VALID,0,VALID,93.3789,VALID,0,VALID,24.0329,VALID,39,VALID,0.541797,
2011-05-04, 00:49:05,VALID,999.257,VALID,0,VALID,93.3942,VALID,0,VALID,24.0329,VALID,39,VALID,0.434375,
2011-05-04, 00:50:05,VALID,999.25,VALID,0,VALID,93.3789,VALID,0,VALID,24.0329,VALID,39,VALID,0.450391,
2011-05-04, 00:51:05,VALID,999.244,VALID,0,VALID,93.3942,VALID,0,VALID,24.0329,VALID,39,VALID,0.633203,
2011-05-04, 00:52:05,VALID,999.211,VALID,0,VALID,93.4094,VALID,0,VALID,24.0329,VALID,46,VALID,0.648828,
2011-05-04, 00:53:05,VALID,999.195,VALID,0,VALID,93.4094,VALID,0,VALID,24.0329,VALID,62,VALID,1.01016,
2011-05-04, 00:54:05,VALID,999.196,VALID,0,VALID,93.4247,VALID,0,VALID,24.0134,VALID,62,VALID,0.698047,
2011-05-04, 00:55:05,VALID,999.173,VALID,0,VALID,93.4247,VALID,0,VALID,24.0134,VALID,62,VALID,0.966797,
2011-05-04, 00:56:05,VALID,999.165,VALID,0,VALID,93.4323,VALID,0,VALID,24.0134,VALID,62,VALID,0.739453,
2011-05-04, 00:57:05,VALID,999.137,VALID,0,VALID,93.4247,VALID,0,VALID,24.0134,VALID,68,VALID,0.959375,
2011-05-04, 00:58:05,VALID,999.116,VALID,0,VALID,93.4171,VALID,0,VALID,24.0134,VALID,72,VALID,0.745313,
2011-05-04, 00:59:05,VALID,999.09,VALID,0,VALID,93.44,VALID,0,VALID,24.0134,VALID,92,VALID,0.812109,
2011-05-04, 01:00:05,VALID,999.079,VALID,0,VALID,93.4323,VALID,0,VALID,23.9939,VALID,92,VALID,0.705859,
2011-05-04, 01:01:05,VALID,999.083,VALID,0,VALID,93.4323,VALID,0,VALID,24.0134,VALID,92,VALID,0.714063,
2011-05-04, 01:02:05,VALID,999.044,VALID,0,VALID,93.4628,VALID,0,VALID,24.0134,VALID,92,VALID,0.726172,
2011-05-04, 01:03:05,VALID,999.044,VALID,0,VALID,93.4323,VALID,0,VALID,24.0134,VALID,92,VALID,0.618359,
2011-05-04, 01:04:05,VALID,999.05,VALID,0,VALID,93.44,VALID,0,VALID,24.0134,VALID,92,VALID,0.609375,
2011-05-04, 01:05:05,VALID,999.031,VALID,0,VALID,93.4552,VALID,0,VALID,24.0134,VALID,107,VALID,0.864453,
2011-05-04, 01:06:05,VALID,999.011,VALID,0,VALID,93.4628,VALID,0,VALID,24.0134,VALID,107,VALID,0.672266,
2011-05-04, 01:07:05,VALID,999.016,VALID,0,VALID,93.4476,VALID,0,VALID,24.0134,VALID,107,VALID,0.619922,
2011-05-04, 01:08:05,VALID,998.984,VALID,0,VALID,93.4781,VALID,0,VALID,24.0134,VALID,107,VALID,0.683594,
2011-05-04, 01:09:05,VALID,998.998,VALID,0,VALID,93.4705,VALID,0,VALID,24.0134,VALID,107,VALID,0.845312,
2011-05-04, 01:10:05,VALID,998.991,VALID,0,VALID,93.4628,VALID,0,VALID,24.0134,VALID,106,VALID,0.723047,
2011-05-04, 01:11:05,VALID,998.979,VALID,0,VALID,93.4705,VALID,0,VALID,24.0134,VALID,103,VALID,0.682813,
2011-05-04, 01:12:05,VALID,998.959,VALID,0,VALID,93.4705,VALID,0,VALID,24.0134,VALID,103,VALID,0.835547,
2011-05-04, 01:13:05,VALID,998.963,VALID,0,VALID,93.4476,VALID,0,VALID,24.0329,VALID,103,VALID,0.465625,
2011-05-04, 01:14:05,VALID,998.977,VALID,0,VALID,93.4628,VALID,0,VALID,24.0134,VALID,102,VALID,0.567578,
2011-05-04, 01:15:05,VALID,998.968,VALID,0,VALID,93.4857,VALID,0,VALID,24.0134,VALID,100,VALID,0.00195313,
2011-05-04, 01:16:05,VALID,998.95,VALID,0,VALID,93.4934,VALID,0,VALID,23.9939,VALID,100,VALID,0,
2011-05-04, 01:17:05,VALID,998.971,VALID,0,VALID,93.4552,VALID,0,VALID,23.9939,VALID,100,VALID,0,
2011-05-04, 01:18:05,VALID,998.968,VALID,0,VALID,93.4705,VALID,0,VALID,23.9744,VALID,100,VALID,0,
2011-05-04, 01:19:05,VALID,998.958,VALID,0,VALID,93.4628,VALID,0,VALID,23.9744,VALID,100,VALID,0,
2011-05-04, 01:20:05,VALID,998.979,VALID,0,VALID,93.4934,VALID,0,VALID,23.9744,VALID,100,VALID,0,
2011-05-04, 01:21:05,VALID,998.971,VALID,0,VALID,93.4628,VALID,0,VALID,23.9549,VALID,100,VALID,0,
2011-05-04, 01:22:05,VALID,998.948,VALID,0,VALID,93.4628,VALID,0,VALID,23.9549,VALID,100,VALID,0,
2011-05-04, 01:23:05,VALID,998.953,VALID,0,VALID,93.4781,VALID,0,VALID,23.9354,VALID,100,VALID,0,
2011-05-04, 01:24:05,VALID,998.946,VALID,0,VALID,93.4705,VALID,0,VALID,23.9159,VALID,100,VALID,0,
2011-05-04, 01:25:05,VALID,998.936,VALID,0,VALID,93.4705,VALID,0,VALID,23.9354,VALID,100,VALID,0,
2011-05-04, 01:26:05,VALID,998.919,VALID,0,VALID,93.4857,VALID,0,VALID,23.9159,VALID,100,VALID,0,
2011-05-04, 01:27:05,VALID,998.936,VALID,0,VALID,93.4628,VALID,0,VALID,23.9159,VALID,100,VALID,0,
2011-05-04, 01:28:05,VALID,998.921,VALID,0,VALID,93.4857,VALID,0,VALID,23.9159,VALID,100,VALID,0,
2011-05-04, 01:29:05,VALID,998.916,VALID,0,VALID,93.4857,VALID,0,VALID,23.9159,VALID,100,VALID,0,
2011-05-04, 01:30:05,VALID,998.94,VALID,0,VALID,93.4781,VALID,0,VALID,23.9159,VALID,100,VALID,0,
2011-05-04, 01:31:05,VALID,998.956,VALID,0,VALID,93.4781,VALID,0,VALID,23.9159,VALID,100,VALID,0,
2011-05-04, 01:32:05,VALID,998.927,VALID,0,VALID,93.4628,VALID,0,VALID,23.9159,VALID,100,VALID,0,
2011-05-04, 01:33:05,VALID,998.937,VALID,0,VALID,93.4628,VALID,0,VALID,23.9159,VALID,100,VALID,0,
2011-05-04, 01:34:05,VALID,998.951,VALID,0,VALID,93.4552,VALID,0,VALID,23.8963,VALID,100,VALID,0,
2011-05-04, 01:35:05,VALID,998.94,VALID,0,VALID,93.4628,VALID,0,VALID,23.8963,VALID,100,VALID,0,
2011-05-04, 01:36:05,VALID,998.937,VALID,0,VALID,93.4552,VALID,0,VALID,23.9159,VALID,100,VALID,0,
2011-05-04, 01:37:05,VALID,998.946,VALID,0,VALID,93.4628,VALID,0,VALID,23.9159,VALID,100,VALID,0,
2011-05-04, 01:38:05,VALID,998.944,VALID,0,VALID,93.4781,VALID,0,VALID,23.8945,VALID,100,VALID,0,
2011-05-04, 01:39:05,VALID,998.961,VALID,0,VALID,93.4552,VALID,0,VALID,23.9159,VALID,100,VALID,0,
2011-05-04, 01:40:05,VALID,998.967,VALID,0,VALID,93.4628,VALID,0,VALID,23.8945,VALID,100,VALID,0,
2011-05-04, 01:41:05,VALID,998.974,VALID,0,VALID,93.4552,VALID,0,VALID,23.9354,VALID,100,VALID,0,
2011-05-04, 01:42:05,VALID,998.97,VALID,0,VALID,93.4552,VALID,0,VALID,23.9159,VALID,100,VALID,0,
2011-05-04, 01:43:05,VALID,998.977,VALID,0,VALID,93.4628,VALID,0,VALID,23.9354,VALID,100,VALID,0,
2011-05-04, 01:44:05,VALID,998.949,VALID,0,VALID,93.4552,VALID,0,VALID,23.9354,VALID,100,VALID,0,
2011-05-04, 01:45:05,VALID,998.955,VALID,0,VALID,93.4476,VALID,0,VALID,23.9354,VALID,100,VALID,0,
2011-05-04, 01:46:05,VALID,998.948,VALID,0,VALID,93.4476,VALID,0,VALID,23.9354,VALID,100,VALID,0,
2011-05-04, 01:47:05,VALID,998.96,VALID,0,VALID,93.4476,VALID,0,VALID,23.9354,VALID,100,VALID,0,
2011-05-04, 01:48:05,VALID,998.925,VALID,0,VALID,93.44,VALID,0,VALID,23.9354,VALID,100,VALID,0,
2011-05-04, 01:49:05,VALID,998.972,VALID,0,VALID,93.4476,VALID,0,VALID,23.9159,VALID,99,VALID,0,
2011-05-04, 01:50:05,VALID,998.961,VALID,0,VALID,93.4094,VALID,0,VALID,23.9549,VALID,77,VALID,0,
2011-05-04, 01:51:05,VALID,998.968,VALID,0,VALID,93.4171,VALID,0,VALID,23.9549,VALID,77,VALID,0,
2011-05-04, 01:52:05,VALID,998.931,VALID,0,VALID,93.3866,VALID,0,VALID,23.9549,VALID,77,VALID,0,
2011-05-04, 01:53:05,VALID,998.931,VALID,0,VALID,93.3942,VALID,0,VALID,23.9531,VALID,77,VALID,0,
2011-05-04, 01:54:05,VALID,998.933,VALID,0,VALID,93.3713,VALID,0,VALID,23.9744,VALID,77,VALID,0,
2011-05-04, 01:55:05,VALID,998.959,VALID,0,VALID,93.356,VALID,0,VALID,23.9744,VALID,77,VALID,0,
2011-05-04, 01:56:05,VALID,998.919,VALID,0,VALID,93.3255,VALID,0,VALID,23.9744,VALID,77,VALID,0,
2011-05-04, 01:57:05,VALID,998.967,VALID,0,VALID,93.3103,VALID,0,VALID,23.9744,VALID,77,VALID,0.808594,
2011-05-04, 01:58:05,VALID,998.956,VALID,0,VALID,93.3026,VALID,0,VALID,23.9744,VALID,76,VALID,0.794922,
2011-05-04, 01:59:05,VALID,999,VALID,0,VALID,93.2721,VALID,0,VALID,23.9744,VALID,76,VALID,0.714844,
2011-05-04, 02:00:04,VALID,998.991,VALID,0,VALID,93.2645,VALID,0,VALID,23.9549,VALID,76,VALID,0.7,
2011-05-04, 02:01:04,VALID,998.988,VALID,0,VALID,93.234,VALID,0,VALID,23.9744,VALID,76,VALID,0.553516,
2011-05-04, 02:02:04,VALID,998.961,VALID,0,VALID,93.2034,VALID,0,VALID,23.9744,VALID,76,VALID,0.514063,
2011-05-04, 02:03:04,VALID,998.992,VALID,0,VALID,93.1653,VALID,0,VALID,23.9744,VALID,76,VALID,0,
2011-05-04, 02:04:04,VALID,998.993,VALID,0,VALID,93.1577,VALID,0,VALID,23.9549,VALID,76,VALID,0,
2011-05-04, 02:05:04,VALID,998.992,VALID,0,VALID,93.1348,VALID,0,VALID,23.9549,VALID,76,VALID,0,
2011-05-04, 02:06:04,VALID,998.984,VALID,0,VALID,93.1119,VALID,0,VALID,23.9549,VALID,76,VALID,0,
2011-05-04, 02:07:04,VALID,998.989,VALID,0,VALID,93.089,VALID,0,VALID,23.9531,VALID,76,VALID,0,
2011-05-04, 02:08:04,VALID,998.986,VALID,0,VALID,93.089,VALID,0,VALID,23.9549,VALID,76,VALID,0,
2011-05-04, 02:09:04,VALID,998.991,VALID,0,VALID,93.0585,VALID,0,VALID,23.9549,VALID,76,VALID,0,
2011-05-04, 02:10:04,VALID,999.002,VALID,0,VALID,93.0432,VALID,0,VALID,23.9744,VALID,76,VALID,0,
2011-05-04, 02:11:04,VALID,999.003,VALID,0,VALID,93.0432,VALID,0,VALID,23.9549,VALID,76,VALID,0,
2011-05-04, 02:12:04,VALID,999.001,VALID,0,VALID,93.0356,VALID,0,VALID,23.9549,VALID,76,VALID,0,
2011-05-04, 02:13:04,VALID,998.998,VALID,0,VALID,93.028,VALID,0,VALID,23.9549,VALID,76,VALID,0,
2011-05-04, 02:14:04,VALID,999.029,VALID,0,VALID,93.028,VALID,0,VALID,23.9549,VALID,76,VALID,0,
2011-05-04, 02:15:04,VALID,999.011,VALID,0,VALID,93.0356,VALID,0,VALID,23.9549,VALID,76,VALID,0,
2011-05-04, 02:16:04,VALID,999.016,VALID,0,VALID,93.0356,VALID,0,VALID,23.9549,VALID,76,VALID,0,
2011-05-04, 02:17:04,VALID,999.022,VALID,0,VALID,93.0432,VALID,0,VALID,23.9336,VALID,76,VALID,0,
2011-05-04, 02:18:04,VALID,999.027,VALID,0,VALID,93.0585,VALID,0,VALID,23.9549,VALID,76,VALID,0,
2011-05-04, 02:19:04,VALID,999.029,VALID,0,VALID,93.0585,VALID,0,VALID,23.9567,VALID,76,VALID,0,
2011-05-04, 02:20:04,VALID,999.004,VALID,0,VALID,93.0661,VALID,0,VALID,23.9567,VALID,76,VALID,0,
2011-05-04, 02:21:04,VALID,999.012,VALID,0,VALID,93.0814,VALID,0,VALID,23.9354,VALID,76,VALID,0,
2011-05-04, 02:22:04,VALID,999.022,VALID,0,VALID,93.0966,VALID,0,VALID,23.9354,VALID,76,VALID,0,
2011-05-04, 02:23:04,VALID,998.992,VALID,0,VALID,93.089,VALID,0,VALID,23.9354,VALID,76,VALID,0,
2011-05-04, 02:24:04,VALID,998.957,VALID,0,VALID,93.1195,VALID,0,VALID,23.9354,VALID,76,VALID,0,
2011-05-04, 02:25:04,VALID,998.93,VALID,0,VALID,93.0966,VALID,0,VALID,23.9354,VALID,76,VALID,0,
2011-05-04, 02:26:04,VALID,998.937,VALID,0,VALID,93.1348,VALID,0,VALID,23.9354,VALID,76,VALID,0,
2011-05-04, 02:27:04,VALID,998.948,VALID,0,VALID,93.1348,VALID,0,VALID,23.9354,VALID,76,VALID,0,
2011-05-04, 02:28:04,VALID,998.943,VALID,0,VALID,93.1424,VALID,0,VALID,23.9354,VALID,76,VALID,0,
2011-05-04, 02:29:04,VALID,998.911,VALID,0,VALID,93.1577,VALID,0,VALID,23.9354,VALID,76,VALID,0,
2011-05-04, 02:30:04,VALID,998.901,VALID,0,VALID,93.1729,VALID,0,VALID,23.9354,VALID,76,VALID,0,
2011-05-04, 02:31:04,VALID,998.918,VALID,0,VALID,93.1805,VALID,0,VALID,23.9354,VALID,76,VALID,0,
2011-05-04, 02:32:04,VALID,998.909,VALID,0,VALID,93.1805,VALID,0,VALID,23.9354,VALID,76,VALID,0,
2011-05-04, 02:33:04,VALID,998.934,VALID,0,VALID,93.2111,VALID,0,VALID,23.9354,VALID,76,VALID,0,
2011-05-04, 02:34:04,VALID,998.909,VALID,0,VALID,93.2187,VALID,0,VALID,23.9354,VALID,76,VALID,0,
2011-05-04, 02:35:04,VALID,998.906,VALID,0,VALID,93.2034,VALID,0,VALID,23.9354,VALID,76,VALID,0,
2011-05-04, 02:36:04,VALID,998.87,VALID,0,VALID,93.2187,VALID,0,VALID,23.9372,VALID,76,VALID,0,
2011-05-04, 02:37:04,VALID,998.905,VALID,0,VALID,93.2111,VALID,0,VALID,23.9354,VALID,76,VALID,0,
2011-05-04, 02:38:04,VALID,998.9,VALID,0,VALID,93.1882,VALID,0,VALID,23.9354,VALID,76,VALID,0.582422,
2011-05-04, 02:39:04,VALID,998.897,VALID,0,VALID,93.2187,VALID,0,VALID,23.9354,VALID,84,VALID,0.308984,
2011-05-04, 02:40:04,VALID,998.878,VALID,0,VALID,93.2187,VALID,0,VALID,23.9744,VALID,94,VALID,0,
2011-05-04, 02:41:04,VALID,998.879,VALID,0,VALID,93.2263,VALID,0,VALID,23.9744,VALID,94,VALID,0,
2011-05-04, 02:42:04,VALID,998.908,VALID,0,VALID,93.2034,VALID,0,VALID,23.9957,VALID,94,VALID,0,
2011-05-04, 02:43:04,VALID,998.873,VALID,0,VALID,93.1958,VALID,0,VALID,23.9939,VALID,94,VALID,0,
2011-05-04, 02:44:04,VALID,998.893,VALID,0,VALID,93.2111,VALID,0,VALID,23.9939,VALID,101,VALID,0,
2011-05-04, 02:45:04,VALID,998.863,VALID,0,VALID,93.1882,VALID,0,VALID,23.9939,VALID,110,VALID,0.922656,
2011-05-04, 02:46:04,VALID,998.864,VALID,0,VALID,93.1882,VALID,0,VALID,23.9744,VALID,114,VALID,1.00859,
2011-05-04, 02:47:04,VALID,998.852,VALID,0,VALID,93.1577,VALID,0,VALID,23.9939,VALID,115,VALID,0.706641,
2011-05-04, 02:48:04,VALID,998.859,VALID,0,VALID,93.1653,VALID,0,VALID,23.9939,VALID,106,VALID,0.940234,
2011-05-04, 02:49:04,VALID,998.875,VALID,0,VALID,93.15,VALID,0,VALID,23.9939,VALID,109,VALID,0.696875,
2011-05-04, 02:50:04,VALID,998.847,VALID,0,VALID,93.1424,VALID,0,VALID,24.0134,VALID,115,VALID,0.614453,
2011-05-04, 02:51:04,VALID,998.825,VALID,0,VALID,93.1195,VALID,0,VALID,24.0134,VALID,115,VALID,0.45,
2011-05-04, 02:52:04,VALID,998.849,VALID,0,VALID,93.1043,VALID,0,VALID,24.0134,VALID,115,VALID,0.373828,
2011-05-04, 02:53:04,VALID,998.818,VALID,0,VALID,93.089,VALID,0,VALID,24.0134,VALID,115,VALID,0,
2011-05-04, 02:54:04,VALID,998.81,VALID,0,VALID,93.0737,VALID,0,VALID,24.0134,VALID,153,VALID,0.851953,
2011-05-04, 02:55:04,VALID,998.808,VALID,0,VALID,93.0356,VALID,0,VALID,23.9921,VALID,143,VALID,0.894922,
2011-05-04, 02:56:04,VALID,998.817,VALID,0,VALID,93.0051,VALID,0,VALID,24.0134,VALID,143,VALID,0.847266,
2011-05-04, 02:57:04,VALID,998.814,VALID,0,VALID,92.9364,VALID,0,VALID,24.0329,VALID,143,VALID,0.708203,
2011-05-04, 02:58:04,VALID,998.795,VALID,0,VALID,92.8677,VALID,0,VALID,24.0329,VALID,143,VALID,0.795703,
2011-05-04, 02:59:04,VALID,998.752,VALID,0,VALID,92.8143,VALID,0,VALID,24.0525,VALID,143,VALID,0.704687,
2011-05-04, 03:00:04,VALID,998.737,VALID,0,VALID,92.7457,VALID,0,VALID,24.0525,VALID,127,VALID,0.632031,
2011-05-04, 03:01:04,VALID,998.733,VALID,0,VALID,92.6694,VALID,0,VALID,24.0525,VALID,125,VALID,0.956641,
2011-05-04, 03:02:04,VALID,998.72,VALID,0,VALID,92.6007,VALID,0,VALID,24.072,VALID,124,VALID,0.641016,
2011-05-04, 03:03:04,VALID,998.69,VALID,0,VALID,92.5091,VALID,0,VALID,24.072,VALID,122,VALID,0.769141,
2011-05-04, 03:04:04,VALID,998.721,VALID,0,VALID,92.4481,VALID,0,VALID,24.0525,VALID,119,VALID,0.240234,
2011-05-04, 03:05:04,VALID,998.728,VALID,0,VALID,92.3871,VALID,0,VALID,24.0311,VALID,119,VALID,0,
2011-05-04, 03:06:04,VALID,998.676,VALID,0,VALID,92.3871,VALID,0,VALID,24.0525,VALID,119,VALID,0,
2011-05-04, 03:07:04,VALID,998.693,VALID,0,VALID,92.3642,VALID,0,VALID,24.0329,VALID,119,VALID,0.00351562,
2011-05-04, 03:08:04,VALID,998.685,VALID,0,VALID,92.3794,VALID,0,VALID,24.0134,VALID,119,VALID,0,
2011-05-04, 03:09:04,VALID,998.648,VALID,0,VALID,92.3871,VALID,0,VALID,23.9921,VALID,119,VALID,0.00195313,
2011-05-04, 03:10:04,VALID,998.666,VALID,0,VALID,92.4176,VALID,0,VALID,23.9939,VALID,119,VALID,0,
2011-05-04, 03:11:04,VALID,998.68,VALID,0,VALID,92.4252,VALID,0,VALID,24.0134,VALID,119,VALID,0,
2011-05-04, 03:12:04,VALID,998.661,VALID,0,VALID,92.471,VALID,0,VALID,23.9921,VALID,119,VALID,0,
2011-05-04, 03:13:04,VALID,998.676,VALID,0,VALID,92.471,VALID,0,VALID,24.0134,VALID,119,VALID,0,
2011-05-04, 03:14:04,VALID,998.685,VALID,0,VALID,92.4939,VALID,0,VALID,23.9921,VALID,119,VALID,0,
2011-05-04, 03:15:04,VALID,998.687,VALID,0,VALID,92.4786,VALID,0,VALID,23.9939,VALID,119,VALID,0,
2011-05-04, 03:16:04,VALID,998.69,VALID,0,VALID,92.4634,VALID,0,VALID,23.9939,VALID,119,VALID,0,
2011-05-04, 03:17:04,VALID,998.675,VALID,0,VALID,92.4863,VALID,0,VALID,24.0134,VALID,119,VALID,0,
2011-05-04, 03:18:04,VALID,998.691,VALID,0,VALID,92.4557,VALID,0,VALID,23.9921,VALID,119,VALID,0,
2011-05-04, 03:19:04,VALID,998.698,VALID,0,VALID,92.4481,VALID,0,VALID,24.0134,VALID,119,VALID,0,
2011-05-04, 03:20:04,VALID,998.688,VALID,0,VALID,92.4328,VALID,0,VALID,24.0134,VALID,119,VALID,0,
2011-05-04, 03:21:04,VALID,998.718,VALID,0,VALID,92.4405,VALID,0,VALID,23.9939,VALID,119,VALID,0,
2011-05-04, 03:22:04,VALID,998.673,VALID,0,VALID,92.4252,VALID,0,VALID,23.9921,VALID,152,VALID,0.326562,
2011-05-04, 03:23:04,VALID,998.724,VALID,0,VALID,92.4023,VALID,0,VALID,23.9921,VALID,152,VALID,0.369922,
2011-05-04, 03:24:04,VALID,998.695,VALID,0,VALID,92.3642,VALID,0,VALID,23.9921,VALID,144,VALID,0.883203,
2011-05-04, 03:25:04,VALID,998.719,VALID,0,VALID,92.2726,VALID,0,VALID,24.0134,VALID,144,VALID,0.694141,
2011-05-04, 03:26:04,VALID,998.714,VALID,0,VALID,92.204,VALID,0,VALID,24.0525,VALID,144,VALID,0.621484,
2011-05-04, 03:27:04,VALID,998.674,VALID,0,VALID,92.1048,VALID,0,VALID,24.0311,VALID,144,VALID,0.771094,
2011-05-04, 03:28:04,VALID,998.68,VALID,0,VALID,92.0056,VALID,0,VALID,24.072,VALID,144,VALID,0.632031,
2011-05-04, 03:29:04,VALID,998.696,VALID,0,VALID,91.9217,VALID,0,VALID,24.0915,VALID,144,VALID,0.829687,
2011-05-04, 03:30:04,VALID,998.683,VALID,0,VALID,91.8377,VALID,0,VALID,24.0506,VALID,144,VALID,0.946094,
2011-05-04, 03:31:04,VALID,998.654,VALID,0,VALID,91.7767,VALID,0,VALID,24.0915,VALID,144,VALID,0.980859,
2011-05-04, 03:32:04,VALID,998.673,VALID,0,VALID,91.6928,VALID,0,VALID,24.1092,VALID,156,VALID,1.14688,
2011-05-04, 03:33:04,VALID,998.66,VALID,0,VALID,91.5631,VALID,0,VALID,24.1305,VALID,158,VALID,1.10586,
2011-05-04, 03:34:04,VALID,998.657,VALID,0,VALID,91.441,VALID,0,VALID,24.15,VALID,167,VALID,1.12227,
2011-05-04, 03:35:04,VALID,998.658,VALID,0,VALID,91.296,VALID,0,VALID,24.1482,VALID,168,VALID,0.911328,
2011-05-04, 03:36:04,VALID,998.63,VALID,0,VALID,91.2274,VALID,0,VALID,24.15,VALID,161,VALID,1.14375,
2011-05-04, 03:37:04,VALID,998.641,VALID,0,VALID,91.1206,VALID,0,VALID,24.1287,VALID,161,VALID,1.09844,
2011-05-04, 03:38:04,VALID,998.628,VALID,0,VALID,91.029,VALID,0,VALID,24.1696,VALID,164,VALID,0.905859,
2011-05-04, 03:39:04,VALID,998.625,VALID,0,VALID,90.9756,VALID,0,VALID,24.15,VALID,164,VALID,0.833984,
2011-05-04, 03:40:04,VALID,998.637,VALID,0,VALID,90.9603,VALID,0,VALID,24.1092,VALID,164,VALID,0.844141,
2011-05-04, 03:41:04,VALID,998.646,VALID,0,VALID,91.0137,VALID,0,VALID,24.15,VALID,164,VALID,0.570313,
2011-05-04, 03:42:04,VALID,998.623,VALID,0,VALID,91.0443,VALID,0,VALID,24.1305,VALID,164,VALID,0.522656,
2011-05-04, 03:43:04,VALID,998.622,VALID,0,VALID,91.1206,VALID,0,VALID,24.111,VALID,164,VALID,0.408203,
2011-05-04, 03:44:04,VALID,998.655,VALID,0,VALID,91.2197,VALID,0,VALID,24.0915,VALID,164,VALID,0,
2011-05-04, 03:45:04,VALID,998.688,VALID,0,VALID,91.3494,VALID,0,VALID,24.0915,VALID,164,VALID,0,
2011-05-04, 03:46:04,VALID,998.695,VALID,0,VALID,91.4944,VALID,0,VALID,24.072,VALID,164,VALID,0,
2011-05-04, 03:47:04,VALID,998.713,VALID,0,VALID,91.6012,VALID,0,VALID,24.072,VALID,164,VALID,0.320703,
2011-05-04, 03:48:04,VALID,998.716,VALID,0,VALID,91.708,VALID,0,VALID,24.072,VALID,164,VALID,0,
2011-05-04, 03:49:04,VALID,998.714,VALID,0,VALID,91.7157,VALID,0,VALID,24.072,VALID,164,VALID,0,
2011-05-04, 03:50:04,VALID,998.721,VALID,0,VALID,91.7157,VALID,0,VALID,24.072,VALID,164,VALID,0,
2011-05-04, 03:51:04,VALID,998.72,VALID,0,VALID,91.7385,VALID,0,VALID,24.072,VALID,164,VALID,0,
2011-05-04, 03:52:04,VALID,998.738,VALID,0,VALID,91.7385,VALID,0,VALID,24.072,VALID,164,VALID,0,
2011-05-04, 03:53:04,VALID,998.731,VALID,0,VALID,91.7385,VALID,0,VALID,24.072,VALID,164,VALID,0,
2011-05-04, 03:54:04,VALID,998.725,VALID,0,VALID,91.7614,VALID,0,VALID,24.0525,VALID,164,VALID,0,
2011-05-04, 03:55:04,VALID,998.778,VALID,0,VALID,91.8072,VALID,0,VALID,24.072,VALID,164,VALID,0,